Temperature
12 12 11 11 10 10 10 9 9 9 9 9 9 9 9 8 8 8 8 8 7 7 7 7 7 6 5 5 4 4 4 3 3 3 2 2 2 2 3 3 3 3 3
11 11 11 11 10 10 9 9 9 9 9 9 9 9 8 8 8 8 7 7 7 7 7 7 6 6 5 5 4 4 3 3 3 2 2 2 2 2 2 2 2 2 2
11 11 11 10 10 9 9 9 8 8 8 8 9 8 8 8 8 7 7 7 7 7 6 6 6 6 5 4 4 3 3 2 2 2 2 1 1 1 1 1 1 2 2
11 10 10 10 10 9 9 8 8 8 8 8 8 8 8 7 7 7 7 7 7 6 6 6 6 5 5 4 4 3 2 2 2 1 1 1 1 1 1 1 1 1 1
10 10 10 10 9 9 8 8 8 8 8 8 8 7 7 7 7 7 7 7 7 6 6 6 5 5 5 4 4 3 2 2 1 1 1 0 0 0 0 0 0 1 1
9 8 9 9 8 8 8 8 8 8 7 7 7 6 7 7 6 7 7 7 7 6 6 6 5 5 5 4 4 3 2 1 1 0 0 -0 -0 -0 -0 0 0 0 0
8 8 8 8 7 7 7 7 7 7 7 6 5 6 6 6 7 7 7 7 7 7 6 6 6 5 5 4 4 3 3 1 1 0 -0 -1 -1 -0 -0 -0 -0 0 0
8 8 7 7 7 6 6 6 6 6 6 5 5 4 4 5 7 7 7 7 7 6 6 6 5 5 5 4 4 3 3 2 1 0 -0 -1 -1 -1 -1 -0 -0 -0 -0
8 8 7 7 6 6 6 6 5 5 5 5 4 3 3 4 5 6 6 6 6 6 6 6 5 5 4 4 3 3 2 2 2 0 -0 -1 -1 -1 -1 -1 -1 -0 -0
8 7 7 6 6 6 5 5 5 5 4 4 3 3 3 3 3 3 4 5 4 4 5 5 4 4 4 3 3 2 2 1 1 0 -1 -1 -1 -1 -1 -1 -1 -1 -1
8 7 7 6 6 5 5 5 5 4 4 4 3 3 2 2 1 0 1 2 3 3 3 3 3 3 3 3 2 2 1 1 0 -0 -1 -1 -2 -2 -1 -1 -1 -1 -1
7 7 6 6 6 5 5 5 4 4 4 3 3 2 2 1 1 -0 -1 -0 0 1 1 1 2 2 2 2 1 1 0 0 -0 -1 -1 -2 -2 -2 -2 -2 -2 -2 -2
7 7 6 6 6 5 5 5 4 4 4 3 3 3 2 2 1 0 -1 -1 -1 -0 -0 -0 0 1 1 1 1 0 -0 -1 -1 -2 -2 -2 -3 -3 -3 -3 -3 -3 -3
7 7 6 6 5 5 5 4 4 4 3 3 3 3 2 2 1 0 -1 -1 -2 -2 -2 -2 -1 -1 -0 -0 -0 -0 -1 -1 -2 -2 -2 -3 -3 -4 -4 -4 -4 -4 -3
7 7 6 6 5 5 4 4 3 3 3 3 3 2 2 1 1 -0 -1 -2 -3 -4 -3 -3 -3 -2 -1 -1 -1 -1 -2 -2 -2 -3 -3 -3 -4 -4 -4 -4 -4 -4 -4
7 7 6 6 5 5 4 4 3 3 3 3 2 2 1 1 1 -0 -1 -2 -3 -4 -4 -4 -4 -3 -3 -3 -2 -3 -2 -2 -3 -3 -3 -4 -4 -4 -5 -5 -5 -5 -5
6 6 6 5 5 5 4 4 3 3 3 2 2 2 1 1 0 -1 -1 -2 -3 -4 -5 -5 -5 -4 -4 -4 -4 -4 -4 -4 -3 -3 -4 -4 -4 -4 -5 -5 -5 -5 -5
6 5 5 5 4 4 4 3 3 3 2 2 2 1 1 1 0 -1 -1 -2 -3 -4 -5 -5 -5 -5 -5 -5 -5 -4 -4 -4 -4 -4 -4 -4 -4 -5 -5 -5 -5 -5 -5
5 4 4 4 4 4 3 3 2 2 1 1 1 1 0 0 -0 -1 -1 -2 -3 -4 -5 -6 -6 -6 -6 -6 -6 -5 -5 -5 -4 -4 -4 -4 -4 -5 -5 -6 -6 -6 -6
4 3 3 3 3 2 2 2 2 1 1 0 0 -0 -0 -1 -1 -1 -2 -2 -3 -4 -5 -6 -7 -7 -7 -6 -6 -6 -5 -5 -5 -4 -5 -5 -5 -5 -6 -6 -6 -6 -6
3 2 2 2 2 1 1 1 1 0 -0 -0 -0 -1 -1 -1 -2 -2 -3 -4 -4 -5 -6 -7 -7 -8 -7 -7 -7 -6 -6 -6 -5 -5 -5 -5 -5 -5 -5 -6 -6 -6 -7
2 1 1 1 1 1 0 -0 -1 -1 -2 -2 -2 -2 -2 -2 -3 -4 -5 -5 -6 -6 -6 -7 -7 -8 -7 -7 -7 -7 -7 -7 -7 -5 -6 -6 -6 -6 -6 -6 -6 -7 -7
1 0 0 0 -0 -0 -0 -1 -1 -2 -2 -2 -2 -2 -3 -3 -3 -4 -4 -5 -5 -5 -6 -6 -7 -7 -7 -6 -7 -7 -7 -7 -7 -6 -7 -7 -7 -7 -7 -7 -7 -8 -8
-0 -1 -1 -1 -1 -1 -1 -1 -2 -2 -2 -2 -3 -3 -3 -3 -4 -4 -5 -5 -5 -5 -6 -6 -6 -6 -6 -6 -6 -7 -7 -7 -7 -7 -7 -8 -7 -7 -7 -7 -8 -8 -8
-1 -1 -2 -1 -1 -1 -1 -2 -2 -3 -3 -3 -3 -3 -4 -4 -4 -5 -6 -6 -6 -6 -6 -7 -6 -6 -6 -6 -6 -7 -7 -7 -8 -7 -7 -8 -8 -8 -8 -8 -8 -8 -9
-2 -2 -2 -2 -2 -2 -2 -2 -3 -3 -3 -3 -3 -4 -5 -5 -5 -6 -6 -6 -7 -6 -7 -7 -7 -7 -6 -6 -6 -6 -6 -7 -7 -7 -7 -8 -8 -9 -9 -9 -9 -9 -9
Wind_Speed
14 15 15 16 16 15 15 14 13 13 12 13 13 13 13 13 13 13 12 11 10 10 9 8 8 7 7 7 7 7 8 9 9 10 11 11 12 12 13 14 14 15 16
17 15 14 15 16 18 18 16 15 13 13 13 13 14 15 15 15 16 16 15 14 13 12 11 11 10 9 9 9 9 9 10 10 11 11 12 12 13 13 14 14 15 16
20 17 14 13 16 19 18 16 15 13 10 10 9 14 15 16 17 17 18 18 17 16 15 14 13 13 12 11 11 11 11 11 12 12 12 13 13 14 14 15 15 15 16
23 19 14 14 18 17 16 11 8 6 7 7 7 8 12 14 17 19 19 19 19 18 18 17 16 16 15 14 13 13 13 13 13 13 14 14 14 15 15 16 16 16 17
24 21 16 15 17 14 13 11 8 7 8 8 8 7 7 9 13 16 17 20 21 21 21 20 19 19 17 16 15 15 14 14 15 15 15 15 16 16 16 17 17 17 18
23 22 17 16 16 9 9 8 9 8 7 7 8 9 8 8 11 13 16 19 20 22 22 21 21 20 19 18 17 16 16 16 16 16 17 17 17 17 17 18 18 18 19
23 21 16 14 14 10 12 11 8 9 8 4 4 6 6 10 14 12 15 15 18 21 22 22 21 21 20 20 19 18 18 17 18 18 18 18 18 19 19 19 19 19 20
22 22 17 11 12 10 11 11 10 7 7 7 6 3 6 6 9 15 13 13 13 16 18 21 21 21 21 20 20 20 19 19 19 20 20 20 20 20 20 20 20 21 21
22 23 20 17 13 13 14 14 13 13 11 9 8 6 5 8 4 5 9 12 11 11 12 17 20 22 22 20 21 22 22 21 21 21 22 22 22 22 22 22 21 21 22
20 22 21 19 14 14 16 15 15 13 13 12 8 10 9 5 4 5 4 6 9 12 11 12 16 20 22 21 21 22 23 23 23 23 23 23 24 24 24 23 23 23 23
15 19 20 17 15 15 16 15 14 15 15 15 12 7 11 10 10 8 11 6 4 6 9 9 11 15 20 21 21 23 24 24 25 25 25 25 25 25 25 25 25 24 24
10 13 16 15 15 15 16 17 16 17 17 17 15 12 9 8 9 11 17 14 9 6 7 9 10 13 18 20 22 25 25 26 26 26 25 26 26 26 27 26 26 26 26
10 12 14 15 16 16 15 14 16 18 19 17 18 16 15 16 8 8 12 13 9 6 5 7 10 14 17 18 21 26 26 26 26 26 26 26 27 27 27 27 28 28 28
11 11 13 15 16 16 16 16 16 18 16 19 20 19 16 15 13 12 10 9 10 8 8 9 5 10 16 18 21 25 22 26 26 26 26 27 27 28 28 29 29 29 29
10 11 11 13 15 16 16 16 16 18 17 18 18 18 18 15 13 12 11 11 12 14 14 9 8 8 13 17 22 20 19 24 26 26 27 27 28 29 29 30 30 30 30
10 11 11 12 13 14 15 15 16 16 17 18 15 16 18 14 13 12 13 11 13 16 17 6 9 7 8 12 19 19 20 24 26 27 27 28 29 29 30 30 31 31 32
10 10 11 11 12 14 14 14 16 15 18 18 16 17 20 16 14 12 12 13 14 14 20 10 7 8 9 10 10 13 15 16 18 26 28 29 30 30 30 31 31 32 32
10 10 10 11 12 13 13 14 16 16 17 18 18 18 19 15 17 15 14 15 15 15 17 17 8 9 11 10 9 10 11 16 16 24 28 29 30 30 31 31 31 32 32
10 10 10 11 12 12 13 14 15 16 16 17 17 18 18 17 18 16 16 16 14 15 14 14 11 8 9 8 9 10 12 9 15 21 25 27 28 30 30 30 31 31 32
10 11 11 12 12 12 13 13 14 15 15 16 16 17 17 17 19 18 16 16 14 14 13 13 12 9 10 8 7 10 11 10 11 13 18 21 25 28 29 30 31 31 32
11 11 12 12 12 11 11 12 12 14 15 15 15 15 16 20 24 19 15 12 12 13 12 13 14 12 12 9 10 9 12 9 9 10 11 12 13 13 16 26 29 31 32
11 11 12 13 13 12 19 24 19 12 13 14 15 14 15 20 25 30 31 27 22 17 15 15 14 14 12 12 11 11 10 9 8 7 9 11 10 12 11 12 25 30 32
11 12 12 13 14 16 24 25 25 16 11 12 13 12 12 13 20 14 21 29 27 31 28 18 17 16 14 13 12 13 12 12 12 8 7 12 10 13 11 17 28 30 32
11 12 12 13 13 16 24 25 25 16 10 10 11 12 13 12 13 14 12 13 14 15 18 17 16 15 14 11 12 13 12 13 11 10 9 13 11 12 12 9 25 31 33
12 12 12 13 14 16 22 24 23 10 9 10 10 10 12 11 19 23 15 13 13 13 22 27 24 20 24 25 19 12 12 11 12 10 8 8 9 11 12 12 16 28 32
13 12 12 12 13 13 20 23 22 8 8 8 7 9 16 16 19 22 14 13 14 12 11 12 16 18 16 17 23 15 10 10 9 7 6 6 6 6 9 9 10 10 15
Wind_Direction
204 209 212 212 211 209 209 214 222 230 235 236 234 230 229 230 231 232 237 247 255 260 267 272 277 282 288 293 300 307 312 316 318 322 323 323 324 324 326 326 328 328 329
206 206 210 212 214 214 214 215 219 223 229 232 234 233 233 233 235 236 238 243 251 256 261 265 269 273 277 282 288 294 300 304 308 311 313 313 315 316 316 317 318 319 320
208 207 210 213 216 217 217 219 223 225 229 231 235 235 235 234 236 237 238 240 244 251 256 260 263 265 269 273 279 285 290 295 298 300 303 305 307 308 309 310 310 311 312
211 209 213 217 217 214 213 213 214 215 226 226 231 235 235 235 237 238 238 238 240 243 248 254 257 260 263 267 272 278 283 286 289 292 295 298 301 303 304 305 305 305 304
213 212 217 218 215 212 213 220 214 210 221 227 234 240 240 240 240 241 237 237 236 238 240 246 252 255 258 262 266 271 276 280 283 286 290 292 295 296 298 300 301 300 299
212 213 219 216 210 210 217 219 221 216 221 222 240 250 244 241 241 239 239 238 235 235 236 236 241 247 253 256 261 266 271 275 279 282 285 287 290 291 293 295 296 296 296
211 212 220 214 209 217 222 217 220 224 229 197 232 275 269 245 243 240 237 236 234 232 231 230 231 234 241 250 255 261 267 272 276 279 281 284 285 287 289 290 292 294 294
215 218 219 217 212 218 222 216 211 221 222 190 192 225 288 291 244 237 231 231 234 230 230 230 228 228 229 235 245 255 262 268 272 276 278 281 282 283 285 286 289 291 293
217 220 221 220 216 216 226 221 213 216 227 212 199 187 214 248 297 258 234 232 228 224 228 229 227 227 227 229 237 247 256 264 269 273 276 277 279 280 281 283 286 289 292
220 221 223 222 221 221 227 224 218 218 219 228 216 222 224 200 235 293 266 236 229 227 225 227 228 227 226 226 232 242 250 257 263 268 272 275 277 278 280 282 285 288 290
226 225 224 224 226 226 228 226 221 217 219 228 222 212 228 236 231 246 272 275 259 237 226 224 226 226 225 224 229 238 248 255 260 265 270 273 275 277 280 282 285 288 289
234 229 227 228 229 230 229 227 225 222 224 225 227 221 213 216 218 224 245 255 252 239 227 225 226 227 227 225 229 238 246 252 257 262 267 270 273 276 278 280 283 285 286
245 237 231 233 234 234 232 228 226 228 227 227 228 229 229 231 218 214 234 250 251 240 233 232 226 227 229 226 230 240 246 251 256 260 264 268 271 273 275 277 280 282 282
254 245 234 237 237 236 234 230 231 231 231 231 233 231 234 234 226 223 225 233 254 252 233 237 232 224 228 225 230 239 243 250 255 259 263 267 269 270 272 274 276 277 279
262 254 244 242 242 240 237 233 234 234 232 232 234 232 234 235 229 227 223 218 234 258 259 216 221 220 223 226 234 238 236 245 253 258 262 265 267 269 270 272 273 274 275
266 265 259 252 250 246 242 238 239 237 235 234 233 232 234 235 231 226 225 223 224 241 259 218 215 205 211 224 232 233 233 245 252 258 262 265 267 268 269 270 271 271 272
271 268 266 262 257 253 247 243 242 238 237 238 233 233 235 230 231 228 225 225 228 229 250 247 206 208 208 222 238 235 234 242 251 258 263 266 266 267 268 268 269 270 271
272 269 269 267 264 260 253 247 247 243 240 239 236 234 236 231 230 228 227 228 229 227 238 250 222 212 219 224 230 235 243 247 245 255 260 263 265 265 266 267 268 269 271
276 275 272 270 268 264 258 253 251 249 244 241 237 235 235 229 232 229 227 228 228 229 230 241 238 221 228 229 231 241 244 244 248 254 260 263 264 265 266 267 268 270 271
278 277 274 271 269 266 261 259 254 252 249 246 241 237 234 229 231 228 229 227 225 226 225 232 238 232 233 225 225 240 250 242 246 250 256 259 262 264 265 267 269 271 273
279 276 277 276 273 270 265 261 255 253 251 250 246 240 237 235 235 233 232 225 219 222 223 229 236 236 233 226 227 229 243 248 248 245 251 254 257 258 260 264 268 272 273
281 279 276 276 275 275 280 284 280 256 247 246 247 243 240 246 248 247 244 236 222 219 221 225 231 232 230 227 228 231 236 243 256 229 236 250 244 251 251 248 261 267 270
282 280 278 276 275 276 286 290 287 282 256 245 242 242 242 239 243 238 247 249 244 233 223 219 228 228 227 224 224 230 232 235 245 239 236 262 255 258 256 259 266 270 272
283 283 282 278 277 280 290 294 293 286 268 251 241 236 235 234 231 231 229 234 238 242 239 232 225 225 227 224 219 227 235 244 251 250 237 260 260 261 263 254 268 271 273
287 284 282 281 280 284 291 296 295 278 267 259 246 236 236 233 240 243 235 229 233 235 243 242 241 234 230 231 226 226 232 240 253 250 223 240 261 269 270 267 265 270 272
289 289 286 281 279 281 289 297 296 278 270 267 253 241 249 248 244 247 240 229 230 228 223 235 244 251 249 245 243 233 228 242 258 260 223 222 252 271 280 259 251 256 263
Height
1555 1556 1557 1557 1558 1558 1558 1558 1558 1557 1557 1557 1556 1555 1555 1554 1553 1553 1552 1551 1550 1549 1548 1547 1545 1544 1543 1542 1541 1540 1539 1538 1537 1536 1535 1534 1533 1532 1531 1529 1528 1527 1527
1551 1552 1553 1553 1554 1555 1555 1555 1555 1554 1553 1553 1552 1551 1551 1550 1549 1549 1548 1547 1546 1545 1544 1543 1542 1541 1540 1539 1538 1537 1536 1535 1534 1532 1531 1530 1530 1529 1527 1526 1525 1524 1523
1546 1547 1548 1549 1550 1551 1551 1551 1550 1550 1549 1548 1548 1547 1546 1546 1545 1544 1543 1543 1542 1541 1540 1539 1538 1537 1536 1535 1534 1533 1532 1531 1530 1529 1528 1527 1526 1525 1524 1523 1522 1521 1520
1541 1542 1543 1543 1546 1546 1546 1546 1546 1545 1544 1543 1543 1542 1541 1540 1539 1539 1538 1537 1537 1536 1535 1534 1533 1532 1531 1530 1529 1528 1527 1526 1526 1525 1524 1523 1522 1521 1520 1519 1518 1517 1517
1535 1536 1537 1538 1540 1540 1540 1540 1539 1539 1538 1537 1537 1536 1535 1533 1533 1532 1531 1530 1530 1529 1529 1529 1528 1527 1526 1525 1524 1523 1522 1522 1521 1520 1519 1519 1518 1517 1516 1515 1514 1513 1513
1528 1530 1530 1531 1533 1533 1532 1532 1532 1532 1531 1531 1531 1528 1526 1525 1524 1523 1522 1522 1522 1522 1522 1522 1521 1520 1520 1519 1518 1517 1516 1516 1516 1515 1514 1514 1513 1512 1511 1510 1509 1509 1508
1521 1522 1522 1523 1524 1524 1524 1525 1525 1524 1523 1525 1523 1519 1516 1515 1513 1512 1513 1513 1513 1513 1513 1514 1514 1514 1513 1512 1512 1511 1510 1510 1509 1509 1508 1508 1507 1506 1506 1505 1504 1503 1503
1513 1514 1514 1514 1515 1515 1515 1515 1516 1515 1515 1516 1515 1513 1508 1504 1500 1502 1502 1501 1502 1504 1504 1505 1506 1506 1506 1505 1505 1505 1504 1503 1502 1502 1502 1501 1501 1500 1500 1499 1499 1498 1497
1506 1506 1505 1505 1505 1505 1505 1505 1506 1506 1505 1506 1506 1507 1504 1496 1493 1490 1490 1490 1492 1493 1494 1496 1497 1498 1498 1498 1498 1498 1497 1496 1495 1494 1494 1494 1494 1494 1494 1493 1493 1492 1491
1498 1497 1497 1496 1496 1495 1494 1495 1495 1495 1496 1494 1494 1493 1493 1492 1492 1484 1481 1481 1482 1483 1485 1487 1488 1489 1490 1490 1490 1490 1489 1488 1488 1487 1487 1487 1487 1487 1487 1487 1486 1485 1484
1490 1489 1488 1488 1486 1485 1484 1484 1484 1484 1483 1483 1482 1482 1481 1481 1480 1479 1473 1471 1471 1472 1475 1478 1479 1480 1481 1481 1481 1482 1481 1481 1480 1480 1479 1479 1479 1479 1479 1479 1479 1478 1477
1482 1481 1480 1479 1477 1475 1474 1473 1473 1473 1471 1470 1471 1470 1470 1468 1466 1467 1465 1462 1462 1463 1466 1468 1469 1471 1472 1472 1473 1473 1473 1472 1472 1472 1471 1471 1471 1471 1471 1471 1470 1469 1469
1474 1472 1472 1469 1467 1465 1464 1463 1461 1460 1460 1458 1458 1457 1456 1454 1456 1457 1456 1453 1452 1452 1453 1454 1457 1460 1462 1463 1464 1464 1464 1464 1463 1463 1463 1463 1462 1462 1462 1462 1461 1461 1460
1467 1465 1463 1460 1458 1456 1454 1452 1450 1448 1447 1446 1445 1445 1444 1443 1444 1444 1444 1446 1443 1441 1440 1441 1445 1448 1451 1453 1454 1455 1454 1455 1455 1454 1454 1454 1453 1453 1453 1452 1452 1451 1451
1461 1458 1455 1451 1449 1446 1444 1442 1438 1436 1435 1433 1432 1432 1431 1431 1432 1432 1433 1435 1437 1432 1426 1429 1433 1436 1440 1443 1444 1444 1444 1445 1445 1445 1444 1444 1444 1444 1443 1443 1443 1442 1442
1455 1451 1447 1443 1440 1437 1434 1431 1427 1425 1423 1421 1420 1420 1418 1419 1420 1421 1422 1422 1423 1422 1417 1416 1421 1425 1429 1431 1433 1433 1434 1435 1435 1435 1435 1434 1434 1434 1433 1433 1433 1432 1432
1447 1443 1439 1434 1430 1427 1424 1420 1416 1414 1411 1409 1408 1407 1405 1408 1408 1408 1409 1410 1410 1411 1406 1404 1410 1414 1417 1420 1422 1423 1424 1424 1424 1424 1424 1424 1423 1423 1423 1422 1422 1422 1422
1440 1435 1430 1425 1421 1416 1413 1409 1405 1402 1399 1396 1396 1395 1394 1396 1395 1396 1397 1397 1397 1398 1397 1395 1398 1402 1405 1408 1410 1412 1413 1413 1413 1413 1413 1413 1412 1412 1412 1412 1412 1411 1411
1431 1426 1421 1415 1410 1406 1401 1397 1393 1389 1387 1384 1383 1382 1382 1383 1382 1383 1384 1384 1385 1386 1386 1386 1386 1391 1393 1397 1398 1399 1400 1401 1401 1402 1402 1402 1401 1401 1401 1401 1401 1400 1399
1422 1417 1411 1405 1400 1395 1390 1386 1381 1377 1374 1372 1371 1370 1369 1370 1369 1371 1371 1371 1373 1374 1375 1376 1377 1379 1382 1385 1387 1387 1388 1390 1390 1391 1391 1391 1390 1390 1390 1390 1390 1389 1387
1413 1407 1401 1395 1390 1384 1379 1374 1370 1365 1362 1359 1358 1357 1357 1357 1357 1358 1358 1358 1361 1362 1364 1365 1367 1369 1371 1374 1374 1377 1378 1379 1379 1380 1379 1379 1379 1378 1377 1377 1376 1375 1373
1403 1397 1391 1385 1379 1374 1370 1365 1360 1355 1351 1348 1346 1345 1346 1346 1346 1348 1348 1349 1349 1350 1352 1354 1355 1358 1359 1363 1366 1367 1369 1369 1369 1370 1369 1367 1368 1365 1365 1364 1363 1361 1360
1392 1386 1380 1375 1369 1364 1360 1355 1350 1346 1342 1338 1336 1335 1334 1334 1335 1335 1337 1339 1341 1341 1341 1343 1344 1346 1350 1353 1357 1358 1359 1359 1359 1360 1360 1356 1356 1354 1353 1352 1351 1349 1347
1383 1376 1370 1365 1359 1355 1350 1345 1341 1336 1332 1329 1327 1325 1324 1324 1325 1325 1325 1326 1328 1330 1334 1335 1335 1337 1342 1345 1347 1349 1351 1351 1350 1350 1351 1347 1345 1343 1341 1339 1338 1336 1334
1373 1367 1361 1356 1350 1345 1341 1336 1332 1326 1322 1320 1318 1317 1315 1314 1315 1316 1316 1315 1316 1318 1322 1326 1328 1331 1333 1336 1339 1341 1341 1342 1340 1340 1340 1338 1334 1333 1329 1325 1323 1322 1319
1364 1358 1352 1347 1342 1336 1332 1328 1324 1318 1314 1311 1309 1308 1307 1306 1306 1307 1307 1307 1307 1309 1312 1316 1319 1322 1325 1328 1331 1332 1333 1333 1332 1330 1330 1329 1326 1323 1315 1309 1309 1306 1303